Time,TemperatureF,DewpointF,PressureIn,WindDirection,WindDirectionDegrees,WindSpeedMPH,WindSpeedGustMPH,Humidity,HourlyPrecipIn,Conditions,Clouds,dailyrainin,SoftwareType,DateUTC
2018-02-17 00:02:00,20.2,17.0,30.27,West,263,0.0,0.0,88,0.00,,,0.00,weatherlink.com 1.10,2018-02-17 06:02:00,
2018-02-17 00:17:00,19.1,16.0,30.26,West,263,0.0,0.0,88,0.00,,,0.00,weatherlink.com 1.10,2018-02-17 06:17:00,
2018-02-17 00:32:00,19.0,16.0,30.26,West,263,0.0,0.0,89,0.00,,,0.00,weatherlink.com 1.10,2018-02-17 06:32:00,
2018-02-17 00:47:00,18.9,16.0,30.26,West,263,0.0,0.0,89,0.00,,,0.00,weatherlink.com 1.10,2018-02-17 06:47:00,
2018-02-17 01:02:00,18.9,17.0,30.27,West,263,0.0,0.0,90,0.00,,,0.00,weatherlink.com 1.10,2018-02-17 07:02:00,
2018-02-17 01:17:00,19.0,17.0,30.27,West,263,0.0,0.0,90,0.00,,,0.00,weatherlink.com 1.10,2018-02-17 07:17:00,
2018-02-17 01:32:00,19.0,17.0,30.27,West,263,0.0,0.0,90,0.00,,,0.00,weatherlink.com 1.10,2018-02-17 07:32:00,
2018-02-17 01:47:00,18.9,17.0,30.26,West,263,0.0,0.0,90,0.00,,,0.00,weatherlink.com 1.10,2018-02-17 07:47:00,
2018-02-17 02:02:00,18.4,16.0,30.25,SW,221,0.0,0.0,90,0.00,,,0.00,weatherlink.com 1.10,2018-02-17 08:02:00,
2018-02-17 02:17:00,17.8,15.0,30.24,SW,221,0.0,0.0,90,0.00,,,0.00,weatherlink.com 1.10,2018-02-17 08:17:00,
2018-02-17 02:32:00,17.8,15.0,30.24,SW,221,0.0,0.0,90,0.00,,,0.00,weatherlink.com 1.10,2018-02-17 08:32:00,
2018-02-17 02:52:00,18.1,16.0,30.23,SW,221,0.0,0.0,91,0.00,,,0.00,weatherlink.com 1.10,2018-02-17 08:52:00,
2018-02-17 03:02:00,18.3,16.0,30.23,SW,221,0.0,0.0,91,0.00,,,0.00,weatherlink.com 1.10,2018-02-17 09:02:00,
2018-02-17 03:21:00,18.5,16.0,30.22,SW,221,0.0,0.0,91,0.00,,,0.00,weatherlink.com 1.10,2018-02-17 09:21:00,
2018-02-17 03:38:00,18.8,17.0,30.21,SW,221,0.0,0.0,91,0.00,,,0.00,weatherlink.com 1.10,2018-02-17 09:38:00,
2018-02-17 03:48:00,19.1,17.0,30.21,SW,221,0.0,0.0,91,0.00,,,0.00,weatherlink.com 1.10,2018-02-17 09:48:00,
2018-02-17 04:02:00,19.1,17.0,30.20,SW,221,0.0,0.0,91,0.00,,,0.00,weatherlink.com 1.10,2018-02-17 10:02:00,
2018-02-17 04:17:00,19.0,17.0,30.19,SW,219,0.0,0.0,91,0.00,,,0.00,weatherlink.com 1.10,2018-02-17 10:17:00,
2018-02-17 04:32:00,19.4,17.0,30.19,SSW,196,0.0,1.0,91,0.00,,,0.00,weatherlink.com 1.10,2018-02-17 10:32:00,
2018-02-17 04:47:00,20.1,18.0,30.19,SSE,159,1.0,2.0,92,0.00,,,0.00,weatherlink.com 1.10,2018-02-17 10:47:00,
2018-02-17 05:02:00,21.2,20.0,30.20,SSE,150,0.0,1.0,95,0.00,,,0.00,weatherlink.com 1.10,2018-02-17 11:02:00,
2018-02-17 05:17:00,21.8,20.0,30.19,SSE,150,0.0,0.0,92,0.00,,,0.00,weatherlink.com 1.10,2018-02-17 11:17:00,
2018-02-17 05:32:00,22.6,21.0,30.19,SSE,150,0.0,1.0,92,0.00,,,0.00,weatherlink.com 1.10,2018-02-17 11:32:00,
2018-02-17 05:47:00,23.3,21.0,30.19,SSE,152,0.0,1.0,92,0.00,,,0.00,weatherlink.com 1.10,2018-02-17 11:47:00,
2018-02-17 06:02:00,23.7,22.0,30.20,SSE,152,0.0,0.0,92,0.00,,,0.00,weatherlink.com 1.10,2018-02-17 12:02:00,
2018-02-17 06:17:00,24.1,22.0,30.19,SE,140,0.0,3.0,92,0.00,,,0.00,weatherlink.com 1.10,2018-02-17 12:17:00,
2018-02-17 06:32:00,24.2,22.0,30.18,SE,137,0.0,2.0,92,0.00,,,0.00,weatherlink.com 1.10,2018-02-17 12:32:00,
2018-02-17 06:47:00,24.5,23.0,30.18,SSE,160,2.0,4.0,92,0.00,,,0.00,weatherlink.com 1.10,2018-02-17 12:47:00,
2018-02-17 07:02:00,24.9,23.0,30.16,SE,144,4.0,5.0,91,0.00,,,0.00,weatherlink.com 1.10,2018-02-17 13:02:00,
2018-02-17 07:17:00,25.3,23.0,30.14,SE,142,3.0,7.0,91,0.00,,,0.00,weatherlink.com 1.10,2018-02-17 13:17:00,
2018-02-17 07:32:00,25.8,24.0,30.14,South,173,3.0,7.0,91,0.00,,,0.00,weatherlink.com 1.10,2018-02-17 13:32:00,
2018-02-17 07:48:00,26.4,24.0,30.14,SE,142,4.0,8.0,90,0.00,,,0.00,weatherlink.com 1.10,2018-02-17 13:48:00,
2018-02-17 08:03:00,26.8,24.0,30.13,SSE,148,4.0,6.0,90,0.00,,,0.00,weatherlink.com 1.10,2018-02-17 14:03:00,
2018-02-17 08:19:00,27.4,25.0,30.11,SSE,159,5.0,7.0,90,0.00,,,0.00,weatherlink.com 1.10,2018-02-17 14:19:00,
2018-02-17 08:33:00,27.9,25.0,30.12,SSE,163,5.0,8.0,90,0.00,,,0.00,weatherlink.com 1.10,2018-02-17 14:33:00,
2018-02-17 08:48:00,28.5,26.0,30.11,SSE,150,5.0,7.0,91,0.00,,,0.00,weatherlink.com 1.10,2018-02-17 14:48:00,
2018-02-17 09:03:00,29.2,27.0,30.10,South,172,3.0,7.0,91,0.00,,,0.00,weatherlink.com 1.10,2018-02-17 15:03:00,
2018-02-17 09:18:00,30.1,28.0,30.10,South,172,9.0,10.0,90,0.00,,,0.00,weatherlink.com 1.10,2018-02-17 15:18:00,
2018-02-17 09:33:00,30.6,28.0,30.10,South,178,7.0,10.0,88,0.00,,,0.00,weatherlink.com 1.10,2018-02-17 15:33:00,
2018-02-17 09:48:00,31.0,28.0,30.09,SSE,168,7.0,10.0,88,0.00,,,0.00,weatherlink.com 1.10,2018-02-17 15:48:00,
2018-02-17 10:03:00,31.5,28.0,30.09,South,177,7.0,10.0,88,0.00,,,0.00,weatherlink.com 1.10,2018-02-17 16:03:00,
2018-02-17 10:18:00,32.1,29.0,30.09,South,184,5.0,9.0,87,0.00,,,0.00,weatherlink.com 1.10,2018-02-17 16:18:00,
2018-02-17 10:33:00,32.5,29.0,30.08,South,184,9.0,10.0,87,0.00,,,0.00,weatherlink.com 1.10,2018-02-17 16:33:00,
2018-02-17 10:48:00,33.1,29.0,30.08,South,184,6.0,13.0,86,0.00,,,0.00,weatherlink.com 1.10,2018-02-17 16:48:00,
2018-02-17 11:03:00,33.4,29.0,30.07,SSW,212,6.0,11.0,85,0.00,,,0.00,weatherlink.com 1.10,2018-02-17 17:03:00,
2018-02-17 11:18:00,33.6,30.0,30.07,South,184,4.0,10.0,85,0.00,,,0.00,weatherlink.com 1.10,2018-02-17 17:18:00,
2018-02-17 11:33:00,33.6,30.0,30.06,South,186,8.0,8.0,85,0.00,,,0.00,weatherlink.com 1.10,2018-02-17 17:33:00,
2018-02-17 11:48:00,33.8,30.0,30.05,SSW,205,7.0,10.0,84,0.00,,,0.00,weatherlink.com 1.10,2018-02-17 17:48:00,
2018-02-17 12:03:00,34.3,30.0,30.04,SW,223,10.0,15.0,83,0.00,,,0.00,weatherlink.com 1.10,2018-02-17 18:03:00,
2018-02-17 12:18:00,34.7,30.0,30.03,SSW,196,8.0,12.0,83,0.00,,,0.00,weatherlink.com 1.10,2018-02-17 18:18:00,
2018-02-17 12:33:00,35.0,30.0,30.01,SSW,194,9.0,10.0,82,0.00,,,0.00,weatherlink.com 1.10,2018-02-17 18:33:00,
2018-02-17 12:48:00,35.0,30.0,29.99,South,188,7.0,9.0,82,0.00,,,0.00,weatherlink.com 1.10,2018-02-17 18:48:00,
2018-02-17 13:03:00,35.0,30.0,29.99,South,188,8.0,10.0,82,0.00,,,0.00,weatherlink.com 1.10,2018-02-17 19:03:00,
2018-02-17 13:18:00,35.1,30.0,29.98,SSW,195,5.0,12.0,82,0.00,,,0.00,weatherlink.com 1.10,2018-02-17 19:18:00,
2018-02-17 13:33:00,35.4,31.0,29.97,SSW,192,10.0,12.0,83,0.00,,,0.00,weatherlink.com 1.10,2018-02-17 19:33:00,